Time,TemperatureF,DewpointF,PressureIn,WindDirection,WindDirectionDegrees,WindSpeedMPH,WindSpeedGustMPH,Humidity,HourlyPrecipIn,Conditions,Clouds,dailyrainin,SoftwareType,DateUTC
2013-04-30 00:02:00,50.0,38.0,30.31,SW,216,0.0,1.0,62,0.00,,,0.00,,2013-04-30 04:02:00,
2013-04-30 00:12:00,50.0,38.0,30.31,SW,216,0.0,1.0,62,0.00,,,0.00,,2013-04-30 04:12:00,
2013-04-30 00:22:00,50.0,38.0,30.30,SW,216,0.0,0.0,62,0.00,,,0.00,,2013-04-30 04:22:00,
2013-04-30 00:32:00,50.0,39.0,30.30,WSW,238,0.0,1.0,65,0.00,,,0.00,,2013-04-30 04:32:00,
2013-04-30 00:42:00,50.0,39.0,30.30,WSW,238,0.0,1.0,65,0.00,,,0.00,,2013-04-30 04:42:00,
2013-04-30 00:52:00,50.0,38.0,30.30,WSW,238,0.0,0.0,64,0.00,,,0.00,,2013-04-30 04:52:00,
2013-04-30 01:02:00,49.0,37.0,30.30,WSW,238,0.0,0.0,64,0.00,,,0.00,,2013-04-30 05:02:00,
2013-04-30 01:12:00,49.0,37.0,30.30,WSW,238,0.0,0.0,64,0.00,,,0.00,,2013-04-30 05:12:00,
2013-04-30 01:22:00,49.0,37.0,30.30,WSW,238,0.0,0.0,63,0.00,,,0.00,,2013-04-30 05:22:00,
2013-04-30 01:31:00,49.0,36.0,30.30,WSW,238,0.0,0.0,61,0.00,,,0.00,,2013-04-30 05:31:00,
2013-04-30 01:42:00,49.0,36.0,30.30,WSW,238,0.0,0.0,61,0.00,,,0.00,,2013-04-30 05:42:00,
2013-04-30 01:51:00,49.0,36.0,30.30,WSW,238,0.0,0.0,61,0.00,,,0.00,,2013-04-30 05:51:00,
2013-04-30 02:02:00,49.0,35.0,30.29,WSW,238,0.0,0.0,58,0.00,,,0.00,,2013-04-30 06:02:00,
2013-04-30 02:12:00,49.0,35.0,30.29,WSW,238,0.0,0.0,58,0.00,,,0.00,,2013-04-30 06:12:00,
2013-04-30 02:21:00,49.0,35.0,30.29,WSW,238,0.0,0.0,58,0.00,,,0.00,,2013-04-30 06:21:00,
2013-04-30 02:32:00,48.0,35.0,30.29,WSW,238,0.0,0.0,61,0.00,,,0.00,,2013-04-30 06:32:00,
2013-04-30 02:42:00,48.0,35.0,30.29,WSW,238,0.0,0.0,61,0.00,,,0.00,,2013-04-30 06:42:00,
2013-04-30 02:52:00,48.0,34.0,30.29,WSW,238,0.0,0.0,58,0.00,,,0.00,,2013-04-30 06:52:00,
2013-04-30 03:02:00,47.0,33.0,30.29,WSW,238,0.0,0.0,59,0.00,,,0.00,,2013-04-30 07:02:00,
2013-04-30 03:11:00,47.0,33.0,30.29,WSW,238,0.0,0.0,59,0.00,,,0.00,,2013-04-30 07:11:00,
2013-04-30 03:21:00,47.0,33.0,30.29,WSW,238,0.0,0.0,58,0.00,,,0.00,,2013-04-30 07:21:00,
2013-04-30 03:32:00,47.0,34.0,30.29,WSW,238,0.0,0.0,61,0.00,,,0.00,,2013-04-30 07:32:00,
2013-04-30 03:42:00,47.0,34.0,30.29,WSW,238,0.0,0.0,61,0.00,,,0.00,,2013-04-30 07:42:00,
2013-04-30 03:52:00,47.0,33.0,30.29,WSW,238,0.0,0.0,59,0.00,,,0.00,,2013-04-30 07:52:00,
2013-04-30 04:02:00,47.0,33.0,30.29,WSW,238,0.0,0.0,59,0.00,,,0.00,,2013-04-30 08:02:00,
2013-04-30 04:11:00,47.0,33.0,30.29,WSW,238,0.0,0.0,59,0.00,,,0.00,,2013-04-30 08:11:00,
2013-04-30 04:22:00,47.0,34.0,30.30,WSW,238,0.0,0.0,60,0.00,,,0.00,,2013-04-30 08:22:00,
2013-04-30 04:32:00,47.0,35.0,30.30,WSW,238,0.0,0.0,62,0.00,,,0.00,,2013-04-30 08:32:00,
2013-04-30 04:42:00,47.0,35.0,30.30,WSW,238,0.0,0.0,62,0.00,,,0.00,,2013-04-30 08:42:00,
2013-04-30 04:52:00,47.0,37.0,30.30,WSW,238,0.0,0.0,69,0.00,,,0.00,,2013-04-30 08:52:00,
2013-04-30 05:02:00,46.0,35.0,30.30,WSW,238,0.0,0.0,65,0.00,,,0.00,,2013-04-30 09:02:00,
2013-04-30 05:11:00,46.0,35.0,30.30,WSW,238,0.0,0.0,65,0.00,,,0.00,,2013-04-30 09:11:00,
2013-04-30 05:22:00,46.0,36.0,30.31,WSW,238,0.0,0.0,67,0.00,,,0.00,,2013-04-30 09:22:00,
2013-04-30 05:33:00,45.0,32.0,30.31,WSW,238,0.0,0.0,61,0.00,,,0.00,,2013-04-30 09:33:00,
2013-04-30 05:43:00,45.0,32.0,30.31,WSW,238,0.0,0.0,61,0.00,,,0.00,,2013-04-30 09:43:00,
2013-04-30 05:52:00,45.0,34.0,30.31,WSW,238,0.0,0.0,64,0.00,,,0.00,,2013-04-30 09:52:00,
2013-04-30 06:03:00,45.0,34.0,30.31,WSW,238,0.0,0.0,64,0.00,,,0.00,,2013-04-30 10:03:00,
2013-04-30 06:12:00,45.0,34.0,30.31,WSW,238,0.0,0.0,64,0.00,,,0.00,,2013-04-30 10:12:00,
2013-04-30 06:22:00,44.0,33.0,30.32,WSW,238,0.0,0.0,64,0.00,,,0.00,,2013-04-30 10:22:00,
2013-04-30 06:32:00,44.0,33.0,30.32,WSW,238,0.0,0.0,66,0.00,,,0.00,,2013-04-30 10:32:00,
2013-04-30 06:41:00,44.0,33.0,30.32,WSW,238,0.0,0.0,66,0.00,,,0.00,,2013-04-30 10:41:00,
2013-04-30 06:52:00,44.0,34.0,30.33,SW,232,0.0,0.0,67,0.00,,,0.00,,2013-04-30 10:52:00,
2013-04-30 07:02:00,44.0,34.0,30.33,SW,232,0.0,0.0,68,0.00,,,0.00,,2013-04-30 11:02:00,
2013-04-30 07:11:00,44.0,34.0,30.33,SW,232,0.0,0.0,68,0.00,,,0.00,,2013-04-30 11:11:00,
2013-04-30 07:21:00,45.0,37.0,30.33,SW,232,0.0,0.0,72,0.00,,,0.00,,2013-04-30 11:21:00,
2013-04-30 07:32:00,47.0,38.0,30.34,SW,232,0.0,1.0,72,0.00,,,0.00,,2013-04-30 11:32:00,
2013-04-30 07:42:00,47.0,38.0,30.34,SW,232,0.0,1.0,72,0.00,,,0.00,,2013-04-30 11:42:00,
2013-04-30 07:51:00,50.0,34.0,30.34,SSW,206,0.0,2.0,53,0.00,,,0.00,,2013-04-30 11:51:00,
2013-04-30 08:01:00,51.0,32.0,30.35,SSE,154,0.0,1.0,48,0.00,,,0.00,,2013-04-30 12:01:00,
2013-04-30 08:11:00,51.0,32.0,30.35,SSE,154,0.0,1.0,48,0.00,,,0.00,,2013-04-30 12:11:00,
2013-04-30 08:22:00,51.0,31.0,30.35,South,182,0.0,3.0,46,0.00,,,0.00,,2013-04-30 12:22:00,
2013-04-30 08:31:00,52.0,30.0,30.35,SE,138,0.0,3.0,43,0.00,,,0.00,,2013-04-30 12:31:00,
2013-04-30 08:41:00,52.0,30.0,30.35,SE,138,0.0,3.0,43,0.00,,,0.00,,2013-04-30 12:41:00,
2013-04-30 08:51:00,54.0,30.0,30.35,South,181,0.0,3.0,39,0.00,,,0.00,,2013-04-30 12:51:00,
2013-04-30 09:01:00,56.0,29.0,30.35,SSE,156,0.0,3.0,36,0.00,,,0.00,,2013-04-30 13:01:00,
2013-04-30 09:11:00,56.0,29.0,30.35,SSE,156,0.0,3.0,36,0.00,,,0.00,,2013-04-30 13:11:00,
2013-04-30 09:21:00,58.0,26.0,30.36,East,98,0.0,3.0,29,0.00,,,0.00,,2013-04-30 13:21:00,
2013-04-30 09:31:00,59.0,24.0,30.36,SSE,161,0.0,4.0,26,0.00,,,0.00,,2013-04-30 13:31:00,
2013-04-30 09:41:00,59.0,24.0,30.36,SSE,161,0.0,4.0,26,0.00,,,0.00,,2013-04-30 13:41:00,
2013-04-30 09:51:00,59.0,22.0,30.36,South,184,0.0,2.0,24,0.00,,,0.00,,2013-04-30 13:51:00,
2013-04-30 10:02:00,61.0,22.0,30.36,WSW,251,0.0,3.0,22,0.00,,,0.00,,2013-04-30 14:02:00,
2013-04-30 10:11:00,61.0,23.0,30.36,NW,309,1.0,4.0,23,0.00,,,0.00,,2013-04-30 14:11:00,
2013-04-30 10:21:00,61.0,23.0,30.36,NW,309,1.0,4.0,23,0.00,,,0.00,,2013-04-30 14:21:00,
2013-04-30 10:31:00,61.0,20.0,30.36,SSE,155,0.0,5.0,20,0.00,,,0.00,,2013-04-30 14:31:00,
2013-04-30 10:41:00,61.0,20.0,30.36,SSE,155,0.0,5.0,20,0.00,,,0.00,,2013-04-30 14:41:00,
2013-04-30 10:52:00,61.0,21.0,30.36,ESE,102,1.0,4.0,21,0.00,,,0.00,,2013-04-30 14:52:00,
2013-04-30 11:02:00,63.0,25.0,30.36,SSW,209,1.0,5.0,23,0.00,,,0.00,,2013-04-30 15:02:00,
2013-04-30 11:11:00,63.0,25.0,30.36,SSW,209,1.0,5.0,23,0.00,,,0.00,,2013-04-30 15:11:00,
2013-04-30 11:21:00,63.0,22.0,30.35,North,355,0.0,5.0,21,0.00,,,0.00,,2013-04-30 15:21:00,
2013-04-30 11:32:00,63.0,21.0,30.35,North,9,1.0,4.0,20,0.00,,,0.00,,2013-04-30 15:32:00,
2013-04-30 11:42:00,63.0,21.0,30.35,North,9,1.0,4.0,20,0.00,,,0.00,,2013-04-30 15:42:00,
2013-04-30 11:52:00,63.0,21.0,30.35,East,86,1.0,4.0,20,0.00,,,0.00,,2013-04-30 15:52:00,
2013-04-30 12:02:00,64.0,23.0,30.35,SSW,200,0.0,4.0,21,0.00,,,0.00,,2013-04-30 16:02:00,
2013-04-30 12:12:00,64.0,23.0,30.35,SSW,200,0.0,4.0,21,0.00,,,0.00,,2013-04-30 16:12:00,
2013-04-30 12:23:00,64.0,22.0,30.35,SE,128,1.0,6.0,20,0.00,,,0.00,,2013-04-30 16:23:00,
2013-04-30 12:33:00,64.0,23.0,30.35,SE,128,2.0,6.0,21,0.00,,,0.00,,2013-04-30 16:33:00,
2013-04-30 12:42:00,64.0,23.0,30.35,SE,128,2.0,6.0,21,0.00,,,0.00,,2013-04-30 16:42:00,
2013-04-30 12:52:00,64.0,24.0,30.34,WNW,287,2.0,5.0,22,0.00,,,0.00,,2013-04-30 16:52:00,
2013-04-30 13:02:00,65.0,26.0,30.34,WSW,257,3.0,6.0,23,0.00,,,0.00,,2013-04-30 17:02:00,
2013-04-30 13:12:00,65.0,26.0,30.34,WSW,257,3.0,6.0,23,0.00,,,0.00,,2013-04-30 17:12:00,
2013-04-30 13:22:00,65.0,27.0,30.33,NNW,340,0.0,4.0,24,0.00,,,0.00,,2013-04-30 17:22:00,
2013-04-30 13:32:00,66.0,25.0,30.33,South,186,1.0,5.0,21,0.00,,,0.00,,2013-04-30 17:32:00,
2013-04-30 13:42:00,66.0,25.0,30.33,South,186,1.0,5.0,21,0.00,,,0.00,,2013-04-30 17:42:00,
2013-04-30 13:52:00,66.0,24.0,30.33,SW,232,1.0,5.0,20,0.00,,,0.00,,2013-04-30 17:52:00,
2013-04-30 14:01:00,66.0,26.0,30.33,South,190,2.0,4.0,22,0.00,,,0.00,,2013-04-30 18:01:00,
2013-04-30 14:11:00,66.0,26.0,30.33,South,190,2.0,4.0,22,0.00,,,0.00,,2013-04-30 18:11:00,
2013-04-30 14:22:00,66.0,26.0,30.33,SW,215,1.0,7.0,22,0.00,,,0.00,,2013-04-30 18:22:00,
2013-04-30 14:32:00,67.0,27.0,30.32,NW,312,1.0,5.0,22,0.00,,,0.00,,2013-04-30 18:32:00,
2013-04-30 14:42:00,67.0,27.0,30.32,NW,312,1.0,5.0,22,0.00,,,0.00,,2013-04-30 18:42:00,
2013-04-30 14:52:00,67.0,26.0,30.32,South,186,1.0,7.0,21,0.00,,,0.00,,2013-04-30 18:52:00,
2013-04-30 15:01:00,68.0,27.0,30.32,NW,309,0.0,4.0,21,0.00,,,0.00,,2013-04-30 19:01:00,
2013-04-30 15:11:00,68.0,27.0,30.32,NW,309,0.0,4.0,21,0.00,,,0.00,,2013-04-30 19:11:00,
2013-04-30 15:22:00,68.0,24.0,30.32,East,90,3.0,5.0,19,0.00,,,0.00,,2013-04-30 19:22:00,
2013-04-30 15:32:00,68.0,25.0,30.31,SW,224,1.0,5.0,20,0.00,,,0.00,,2013-04-30 19:32:00,
2013-04-30 15:42:00,68.0,25.0,30.31,SW,224,1.0,5.0,20,0.00,,,0.00,,2013-04-30 19:42:00,
2013-04-30 15:52:00,69.0,25.0,30.31,WNW,298,1.0,4.0,19,0.00,,,0.00,,2013-04-30 19:52:00,
2013-04-30 16:02:00,69.0,29.0,30.30,SSW,199,0.0,4.0,22,0.00,,,0.00,,2013-04-30 20:02:00,
2013-04-30 16:11:00,69.0,29.0,30.30,SSW,199,0.0,4.0,22,0.00,,,0.00,,2013-04-30 20:11:00,
2013-04-30 16:21:00,69.0,29.0,30.30,SSW,205,2.0,5.0,22,0.00,,,0.00,,2013-04-30 20:21:00,
2013-04-30 16:32:00,69.0,29.0,30.31,South,188,2.0,7.0,22,0.00,,,0.00,,2013-04-30 20:32:00,
2013-04-30 16:42:00,69.0,29.0,30.31,South,188,2.0,7.0,22,0.00,,,0.00,,2013-04-30 20:42:00,
2013-04-30 16:52:00,68.0,29.0,30.31,South,188,1.0,5.0,23,0.00,,,0.00,,2013-04-30 20:52:00,
2013-04-30 17:02:00,68.0,29.0,30.31,NW,309,1.0,7.0,23,0.00,,,0.00,,2013-04-30 21:02:00,
2013-04-30 17:11:00,68.0,29.0,30.31,NW,309,1.0,7.0,23,0.00,,,0.00,,2013-04-30 21:11:00,
2013-04-30 17:22:00,67.0,29.0,30.32,NNW,331,1.0,6.0,24,0.00,,,0.00,,2013-04-30 21:22:00,
2013-04-30 17:32:00,67.0,29.0,30.32,South,172,1.0,4.0,24,0.00,,,0.00,,2013-04-30 21:32:00,
2013-04-30 17:42:00,67.0,29.0,30.32,South,172,1.0,4.0,24,0.00,,,0.00,,2013-04-30 21:42:00,
2013-04-30 17:52:00,67.0,28.0,30.32,WSW,257,1.0,7.0,23,0.00,,,0.00,,2013-04-30 21:52:00,
2013-04-30 18:02:00,65.0,27.0,30.32,NNW,331,0.0,6.0,24,0.00,,,0.00,,2013-04-30 22:02:00,
2013-04-30 18:12:00,65.0,27.0,30.32,NNW,331,0.0,6.0,24,0.00,,,0.00,,2013-04-30 22:12:00,
2013-04-30 18:23:00,65.0,28.0,30.32,West,263,1.0,4.0,25,0.00,,,0.00,,2013-04-30 22:23:00,
2013-04-30 18:33:00,64.0,27.0,30.34,NNE,14,1.0,8.0,25,0.00,,,0.00,,2013-04-30 22:33:00,
2013-04-30 18:42:00,64.0,27.0,30.34,NNE,14,1.0,8.0,25,0.00,,,0.00,,2013-04-30 22:42:00,
2013-04-30 18:52:00,64.0,27.0,30.34,ENE,74,1.0,6.0,25,0.00,,,0.00,,2013-04-30 22:52:00,
2013-04-30 19:02:00,62.0,27.0,30.34,SW,217,0.0,3.0,26,0.00,,,0.00,,2013-04-30 23:02:00,
2013-04-30 19:12:00,62.0,27.0,30.34,SW,217,0.0,3.0,26,0.00,,,0.00,,2013-04-30 23:12:00,
2013-04-30 19:22:00,61.0,27.0,30.34,WSW,241,0.0,4.0,27,0.00,,,0.00,,2013-04-30 23:22:00,
2013-04-30 19:32:00,60.0,26.0,30.35,West,275,0.0,5.0,27,0.00,,,0.00,,2013-04-30 23:32:00,
2013-04-30 19:42:00,60.0,26.0,30.35,West,275,0.0,5.0,27,0.00,,,0.00,,2013-04-30 23:42:00,
2013-04-30 19:52:00,59.0,25.0,30.35,West,265,0.0,3.0,27,0.00,,,0.00,,2013-04-30 23:52:00,
2013-04-30 20:02:00,58.0,25.0,30.36,NNW,331,0.0,3.0,28,0.00,,,0.00,,2013-05-01 00:02:00,
2013-04-30 20:11:00,58.0,25.0,30.36,NNW,331,0.0,3.0,28,0.00,,,0.00,,2013-05-01 00:11:00,
2013-04-30 20:22:00,57.0,24.0,30.36,SW,236,0.0,1.0,28,0.00,,,0.00,,2013-05-01 00:22:00,
2013-04-30 20:32:00,56.0,25.0,30.36,WNW,291,0.0,1.0,30,0.00,,,0.00,,2013-05-01 00:32:00,
2013-04-30 20:42:00,56.0,25.0,30.36,WNW,291,0.0,1.0,30,0.00,,,0.00,,2013-05-01 00:42:00,
2013-04-30 20:51:00,55.0,25.0,30.37,West,267,0.0,1.0,31,0.00,,,0.00,,2013-05-01 00:51:00,
2013-04-30 21:01:00,54.0,24.0,30.37,South,183,0.0,2.0,31,0.00,,,0.00,,2013-05-01 01:01:00,
2013-04-30 21:11:00,54.0,24.0,30.37,South,183,0.0,2.0,31,0.00,,,0.00,,2013-05-01 01:11:00,
2013-04-30 21:21:00,53.0,25.0,30.38,South,183,0.0,0.0,34,0.00,,,0.00,,2013-05-01 01:21:00,
2013-04-30 21:32:00,52.0,25.0,30.38,South,183,0.0,0.0,35,0.00,,,0.00,,2013-05-01 01:32:00,
2013-04-30 21:42:00,52.0,25.0,30.38,South,183,0.0,0.0,35,0.00,,,0.00,,2013-05-01 01:42:00,
2013-04-30 21:52:00,51.0,25.0,30.39,South,183,0.0,0.0,36,0.00,,,0.00,,2013-05-01 01:52:00,
2013-04-30 22:02:00,51.0,27.0,30.39,South,183,0.0,0.0,39,0.00,,,0.00,,2013-05-01 02:02:00,
2013-04-30 22:11:00,51.0,27.0,30.39,South,183,0.0,0.0,39,0.00,,,0.00,,2013-05-01 02:11:00,
2013-04-30 22:21:00,50.0,25.0,30.39,South,183,0.0,0.0,38,0.00,,,0.00,,2013-05-01 02:21:00,
2013-04-30 22:32:00,50.0,27.0,30.39,South,183,0.0,0.0,40,0.00,,,0.00,,2013-05-01 02:32:00,
2013-04-30 22:42:00,50.0,27.0,30.39,South,183,0.0,0.0,40,0.00,,,0.00,,2013-05-01 02:42:00,
2013-04-30 22:52:00,49.0,27.0,30.39,South,183,0.0,0.0,42,0.00,,,0.00,,2013-05-01 02:52:00,
2013-04-30 23:02:00,48.0,25.0,30.39,South,183,0.0,0.0,41,0.00,,,0.00,,2013-05-01 03:02:00,
2013-04-30 23:11:00,48.0,25.0,30.39,South,183,0.0,0.0,41,0.00,,,0.00,,2013-05-01 03:11:00,
2013-04-30 23:21:00,48.0,26.0,30.39,South,183,0.0,0.0,42,0.00,,,0.00,,2013-05-01 03:21:00,
2013-04-30 23:33:00,47.0,26.0,30.39,South,183,0.0,0.0,43,0.00,,,0.00,,2013-05-01 03:33:00,
2013-04-30 23:43:00,47.0,26.0,30.39,South,183,0.0,0.0,43,0.00,,,0.00,,2013-05-01 03:43:00,
2013-04-30 23:53:00,47.0,27.0,30.39,South,183,0.0,0.0,45,0.00,,,0.00,,2013-05-01 03:53:00,